Weather History for Fortuna, CA

Change the Weather History Date:

Thursday, May 2, 2013

  Actual Average (KEKA) Record (KEKA)
Temperature  
Mean Temperature 60 °F 52 °F  
Max Temperature 77 °F 59 °F 73 °F (2013)
Min Temperature 44 °F 46 °F 36 °F (1894)
Degree Days  
Heating Degree Days 4 13  
Month to date heating degree days 26  
Since 1 July heating degree days 3847  
Cooling Degree Days 0 0  
Month to date cooling degree days 0  
Year to date cooling degree days 0  
Growing Degree Days 10 (Base 50)    
Moisture  
Dew Point 42 °F    
Average Humidity 61    
Maximum Humidity 93    
Minimum Humidity 27    
Precipitation  
Precipitation 0.00 in 0.07 in 0.86 in (1986)
Month to date precipitation 0.15  
Year to date precipitation 20.90  
Since 1 July precipitation 37.95  
Snow  
Snow 0.00 in 0.00 in 0.00 in (2002)
Month to date snowfall 0.0  
Since 1 July snowfall 0.2  
Snow Depth -    
Sea Level Pressure  
Sea Level Pressure 30.17 in    
Wind  
Wind Speed - (North)    
Max Wind Speed -    
Max Gust Speed -    
Visibility 10 miles    
Events      
T = Trace of Precipitation, MM = Missing Value Source: NWS Daily Summary

Daily Weather History Graph

Daily Weather History Graph

Search for Another Location

Airport:

Trip Planner

Search our weather history database for the weather conditions in past years. The results will help you decide how hot, cold, wet, or windy it might be!

Date:

Astronomy

May. 02, 2013 Rise Set
Actual Time 6:13 AM PDT 8:13 PM PDT
Civil Twilight 5:44 AM PDT 8:43 PM PDT
Nautical Twilight 5:07 AM PDT 9:20 PM PDT
Astronomical Twilight 4:28 AM PDT 9:59 PM PDT
Moon 2:06 AM PDT (5/2) 1:07 PM PDT (5/2)
Length of Visible Light 14h 59m
Length of Day
14h 00m
Waning Gibbous, 46% of the Moon is Illuminated
May 2
Waning Gibbous
May 9
New
May 17
First Quarter
May 24
Full
May 31
Last Quarter

Hourly Weather History & Observations

Time (PDT) Temp. Dew Point Humidity Pressure Visibility Wind Dir Wind Speed Gust Speed Precip Events Conditions
12:15 AM 50.0 °F 41.0 °F 71% 30.15 in 10.0 mi North - - N/A   Clear
12:35 AM 50.0 °F 41.0 °F 71% 30.15 in 10.0 mi North - - N/A   Clear
12:55 AM 48.2 °F 41.0 °F 76% 30.15 in 10.0 mi North - - N/A   Clear
1:15 AM 50.0 °F 41.0 °F 71% 30.15 in 10.0 mi North - - N/A   Clear
1:35 AM 50.0 °F 41.0 °F 71% 30.16 in 10.0 mi North - - N/A   Clear
1:55 AM 50.0 °F 39.2 °F 66% 30.16 in 10.0 mi North - - N/A   Clear
2:15 AM 46.4 °F 41.0 °F 81% 30.16 in 10.0 mi North - - N/A   Clear
2:35 AM 48.2 °F 39.2 °F 71% 30.16 in 10.0 mi North - - N/A   Clear
2:55 AM 48.2 °F 39.2 °F 71% 30.15 in 10.0 mi North - - N/A   Clear
3:15 AM 48.2 °F 39.2 °F 71% 30.15 in 10.0 mi North - - N/A   Clear
3:35 AM 48.2 °F 39.2 °F 71% 30.16 in 10.0 mi North - - N/A   Clear
3:55 AM 48.2 °F 37.4 °F 66% 30.16 in 10.0 mi North - - N/A   Clear
4:15 AM 50.0 °F 37.4 °F 62% 30.16 in 10.0 mi North - - N/A   Clear
4:35 AM 50.0 °F 35.6 °F 58% 30.16 in 10.0 mi North - - N/A   Clear
4:55 AM 50.0 °F 35.6 °F 58% 30.16 in 10.0 mi North - - N/A   Clear
5:15 AM 48.2 °F 35.6 °F 62% 30.16 in 10.0 mi North - - N/A   Clear
5:35 AM 48.2 °F 37.4 °F 66% 30.16 in 10.0 mi North - - N/A   Clear
5:55 AM 48.2 °F 35.6 °F 62% 30.16 in 10.0 mi North - - N/A   Clear
6:15 AM 48.2 °F 35.6 °F 62% 30.17 in 10.0 mi North - - N/A   Clear
6:35 AM 48.2 °F 33.8 °F 58% 30.17 in 10.0 mi North - - N/A   Clear
6:55 AM 50.0 °F 33.8 °F 54% 30.18 in 10.0 mi North - - N/A   Clear
7:15 AM 50.0 °F 35.6 °F 58% 30.18 in 10.0 mi North - - N/A   Clear
7:35 AM 51.8 °F 35.6 °F 54% 30.19 in 10.0 mi North - - N/A   Clear
7:55 AM 53.6 °F 35.6 °F 51% 30.19 in 10.0 mi North - - N/A   Clear
8:15 AM 55.4 °F 35.6 °F 47% 30.18 in 10.0 mi North - - N/A   Clear
8:35 AM 57.2 °F 37.4 °F 48% 30.18 in 10.0 mi North - - N/A   Clear
8:55 AM 57.2 °F 39.2 °F 51% 30.18 in 10.0 mi North - - N/A   Clear
9:15 AM 59.0 °F 41.0 °F 51% 30.18 in 10.0 mi North - - N/A   Clear
9:35 AM 62.6 °F 41.0 °F 45% 30.18 in 10.0 mi North - - N/A   Clear
9:55 AM 64.4 °F 41.0 °F 42% 30.17 in 10.0 mi North - - N/A   Clear
10:15 AM 68.0 °F 41.0 °F 37% 30.17 in 10.0 mi North - - N/A   Clear
10:35 AM 71.6 °F 35.6 °F 27% 30.18 in 10.0 mi North - - N/A   Clear
10:55 AM 73.4 °F 41.0 °F 31% 30.18 in 7.0 mi North - - N/A   Clear
11:15 AM 75.2 °F 46.4 °F 36% 30.18 in 3.0 mi North - - N/A   Clear
11:35 AM 75.2 °F 44.6 °F 34% 30.18 in 7.0 mi North - - N/A   Clear
11:55 AM 77.0 °F 44.6 °F 32% 30.18 in 10.0 mi North - - N/A   Clear
12:15 PM 77.0 °F 46.4 °F 34% 30.18 in 10.0 mi North - - N/A   Clear
12:35 PM 77.0 °F 57.2 °F 50% 30.18 in 10.0 mi North - - N/A   Clear
12:55 PM 73.4 °F 51.8 °F 47% 30.18 in 10.0 mi North - - N/A   Clear
1:15 PM 73.4 °F 48.2 °F 41% 30.18 in 10.0 mi North - - N/A   Clear
1:35 PM 69.8 °F 48.2 °F 46% 30.19 in 10.0 mi North - - N/A   Clear
1:55 PM 68.0 °F 46.4 °F 46% 30.19 in 10.0 mi North - - N/A   Clear
2:15 PM 71.6 °F 46.4 °F 41% 30.18 in 10.0 mi North - - N/A   Clear
2:35 PM 69.8 °F 46.4 °F 43% 30.19 in 10.0 mi North - - N/A   Clear
2:55 PM 69.8 °F 46.4 °F 43% 30.18 in 10.0 mi North - - N/A   Clear
3:15 PM 68.0 °F 46.4 °F 46% 30.18 in 10.0 mi North - - N/A   Clear
3:35 PM 68.0 °F 46.4 °F 46% 30.18 in 10.0 mi North - - N/A   Clear
3:55 PM 68.0 °F 44.6 °F 43% 30.18 in 10.0 mi North - - N/A   Clear
4:15 PM 66.2 °F 46.4 °F 49% 30.18 in 10.0 mi North - - N/A   Clear
4:35 PM 62.6 °F 48.2 °F 59% 30.18 in 10.0 mi North - - N/A   Clear
4:55 PM 62.6 °F 50.0 °F 63% 30.18 in 10.0 mi North - - N/A   Clear
5:15 PM 60.8 °F 48.2 °F 63% 30.19 in 10.0 mi North - - N/A   Clear
5:35 PM 59.0 °F 48.2 °F 67% 30.19 in 10.0 mi North - - N/A   Clear
5:55 PM 59.0 °F 46.4 °F 63% 30.19 in 10.0 mi North - - N/A   Clear
6:15 PM 57.2 °F 46.4 °F 67% 30.19 in 10.0 mi North - - N/A   Clear
6:35 PM 57.2 °F 46.4 °F 67% 30.19 in 10.0 mi North - - N/A   Clear
6:55 PM 55.4 °F 44.6 °F 67% 30.19 in 10.0 mi North - - N/A   Clear
7:15 PM 53.6 °F 44.6 °F 72% 30.19 in 9.0 mi North - - N/A   Clear
7:35 PM 53.6 °F 44.6 °F 72% 30.19 in 10.0 mi North - - N/A   Clear
7:55 PM 50.0 °F 44.6 °F 82% 30.19 in 9.0 mi North - - N/A   Clear
8:15 PM 50.0 °F 44.6 °F 82% 30.20 in 9.0 mi North - - N/A   Clear
8:35 PM 48.2 °F 42.8 °F 82% 30.19 in 10.0 mi North - - N/A   Clear
8:55 PM 48.2 °F 42.8 °F 82% 30.18 in 10.0 mi North - - N/A   Clear
9:15 PM 46.4 °F 42.8 °F 87% 30.18 in 10.0 mi North - - N/A   Clear
9:35 PM 48.2 °F 44.6 °F 87% 30.17 in 10.0 mi North - - N/A   Clear
9:55 PM 46.4 °F 44.6 °F 93% 30.15 in 10.0 mi North - - N/A   Clear
10:15 PM 48.2 °F 44.6 °F 87% 30.16 in 10.0 mi North - - N/A   Clear
10:35 PM 48.2 °F 44.6 °F 87% 30.16 in 10.0 mi North - - N/A   Clear
10:55 PM 48.2 °F 44.6 °F 87% 30.15 in 10.0 mi North - - N/A   Clear
11:15 PM 46.4 °F 42.8 °F 87% 30.15 in 10.0 mi North - - N/A   Clear
11:35 PM 44.6 °F 42.8 °F 93% 30.15 in 10.0 mi North - - N/A   Clear
11:55 PM 44.6 °F 42.8 °F 93% 30.15 in 10.0 mi North - - N/A   Clear